Flag for Germany Weather past 2 weeks in Backnang, Baden-Württemberg, Germany

Now
55 °F

Partly sunny.


Feels Like: 55 °F
Forecast: 38 / 60 °F
Wind: 1 mph from North

Location: Oehringen

Current Time: Sep 23, 2014 at 2:33:49 PM

Latest Report: Sep 23, 2014 at 2:00 PM


Visibility: 17 mi

Pressure: 30.19 "Hg

Humidity: 57%

Dew point: 40 °F

Location of BacknangLocation

Historic Weather in Backnang — Graph

°F

Backnang temperature yesterday

Maximum temperature yesterday: 56 °F (at 12:00 AM)
Minimum temperature yesterday: 45 °F (at 10:00 PM)
Average temperature yesterday: 51 °F

Past Weeks' High & Low Weather Summary

 TemperatureHumidityPressure
High79 °F (Sep 8, 5:00 PM)99% (Sep 12, 3:00 PM)30.24 "Hg (Sep 12, 3:00 PM)
Low43 °F (Sep 23, 4:00 AM)45% (Sep 10, 4:00 PM)29.84 "Hg (Sep 18, 4:00 PM)
Average60 °F84%30.02 "Hg
* Reported Sep 8 1:00 PM — Sep 23 1:00 PM, Backnang, Weather by CustomWeather, © 2014

Note: Actual official high and low records may vary slightly from our data, if they occured in-between our weather recording intervals... More about our weather records

Advertising

Backnang weather history for previous 24 hours

 ConditionsComfort  
Time TempWeatherWind HumidityBarometerVisibility
1:00 PM
Sep 23
56 °FOvercast.2 mph54%30.20 "Hg17 mi
12:00 PM53 °FPassing clouds.1 mph73%30.22 "Hg7 mi
11:00 AM48 °FScattered clouds.1 mph84%30.23 "Hg5 mi
10:00 AM47 °FFog.1 mph87%30.24 "Hg4 mi
9:00 AM46 °FFog.1 mph94%30.23 "Hg2 mi
8:00 AM45 °FFog.2 mph97%30.23 "Hg2 mi
7:00 AM46 °FFog.2 mph95%30.21 "Hg2 mi
6:00 AM45 °FFog.2 mph97%30.19 "Hg2 mi
5:00 AM45 °FFog.2 mph97%30.19 "Hg2 mi
4:00 AM43 °FFog.1 mph97%30.19 "Hg3 mi
3:00 AM44 °FFog.2 mph98%30.19 "Hg3 mi
2:00 AM44 °FFog.2 mph96%30.19 "Hg3 mi
1:00 AM46 °FPassing clouds.2 mph93%30.19 "Hg6 mi
12:00 AM47 °FOvercast.3 mph93%30.19 "Hg6 mi
11:00 PM
Sep 22
46 °FOvercast.2 mph95%30.19 "Hg6 mi
10:00 PM45 °FFog.2 mph96%30.19 "Hg4 mi
9:00 PM46 °FClear.1 mph94%30.17 "Hg7 mi
8:00 PM47 °FClear.3 mph93%30.16 "Hg7 mi
7:00 PM49 °FScattered clouds.3 mph88%30.13 "Hg13 mi
6:00 PM49 °FScattered clouds.5 mph86%30.10 "Hg16 mi
5:00 PM47 °FRain. Overcast.7 mph91%30.11 "Hg1 mi
4:00 PM54 °FScattered clouds.6 mph85%30.05 "Hg4 mi
3:00 PM54 °FRain. Overcast.7 mph79%30.05 "Hg2 mi
2:00 PM56 °FOvercast.7 mph74%30.06 "Hg6 mi
Weather by CustomWeather, © 2014

See weather overviewHow to use our weather pages